[Date Prev][Date Next][Thread Prev][Thread Next] - [Date Index][Thread Index][Author Index]

2 Line ISS Keps 3-1



ISS
1 25544U 98067A   06060.00282419  .00013693  00000-0  98507-4 0  4426
2 25544 051.6440 023.9676 0008122 311.7297 092.8874 15.73917158416116
----
Via the sarex mailing list at AMSAT.ORG courtesy of AMSAT-NA.
To unsubscribe, send "unsubscribe sarex" to Majordomo@amsat.org



AMSAT Top AMSAT Home